1500382800.06,24794,18.81,74624.3,8.67,2.35,2.69,0,*71
1500382801.26,24795,18.81,74624.3,8.63,5.49,6.03,0,*70
1500382802.48,24796,18.81,74624.3,8.63,6.07,6.53,0,*7F
1500382803.72,24797,18.81,74622.5,8.63,6.25,6.65,0,*7B
1500382804.96,24798,18.81,74622.0,8.63,6.03,6.47,0,*70
1500382806.21,24799,18.81,74624.5,8.63,6.39,6.87,0,*74
1500382807.48,24800,18.81,74622.5,8.63,6.51,6.87,0,*75
1500382808.74,24801,18.81,74620.3,8.63,6.47,6.87,0,*73
1500382809.97,24802,18.81,74622.3,8.59,6.51,7.05,0,*75
1500382811.17,24803,18.81,74622.8,8.65,6.25,6.73,0,*78
1500382812.38,24804,18.88,74624.3,8.59,5.67,6.11,0,*71
1500382813.64,24805,18.81,74622.5,8.59,5.89,6.43,0,*77
1500382814.87,24806,18.81,74624.8,8.59,6.21,6.69,0,*7D
1500382816.09,24807,18.81,74624.0,8.57,6.17,6.69,0,*77
1500382817.3,24808,18.81,74626.3,8.59,6.33,6.79,0,*71
1500382818.55,24809,18.81,74620.5,8.59,6.57,7.11,0,*7D
1500382819.8,24810,18.81,74620.0,8.59,6.61,7.15,0,*74
1500382821.04,24811,18.81,74620.3,8.59,6.51,7.01,0,*73
1500382822.26,24812,18.81,74622.0,8.59,6.61,7.05,0,*77
1500382823.49,24813,18.81,74626.5,8.63,6.39,6.83,0,*7D
1500382824.71,24814,18.81,74624.3,8.59,6.57,7.05,0,*74
1500382825.96,24815,18.81,74620.8,8.59,6.57,7.11,0,*70
1500382827.17,24816,18.88,74626.3,8.57,6.57,7.09,0,*74
1500382828.37,24817,18.81,74620.3,8.57,6.53,6.97,0,*77
1500382829.6,24818,18.81,74626.8,8.57,6.57,7.11,0,*73
1500382830.82,24819,18.81,74626.3,8.57,6.69,7.23,0,*7E
1500382832.02,24820,18.81,74620.3,8.57,6.87,7.33,0,*75
1500382833.23,24821,18.81,74622.8,8.57,6.87,7.37,0,*70
1500382834.43,24822,18.81,74622.5,8.59,6.83,7.29,0,*76
1500382835.69,24823,18.81,74620.3,8.59,6.69,7.15,0,*7C
1500382836.94,24824,18.81,74622.3,8.59,6.69,7.15,0,*7B
1500382838.19,24825,18.81,74620.8,8.59,6.57,7.15,0,*77
1500382839.4,24826,18.81,74620.3,8.57,5.95,6.43,0,*75
1500382840.62,24827,18.81,74624.3,8.57,6.17,6.57,0,*78
1500382841.84,24828,18.81,74624.8,8.57,6.43,6.69,0,*7B
1500382843.08,24829,18.81,74620.8,8.57,6.43,6.87,0,*7A
1500382844.28,24830,18.81,74620.8,8.57,6.47,6.79,0,*77
1500382845.53,24831,18.81,74624.5,8.55,6.57,6.91,0,*73
1500382846.75,24832,18.81,74622.0,8.55,6.57,7.01,0,*78
1500382847.97,24833,18.81,74620.3,8.53,6.51,6.93,0,*73
1500382849.2,24834,18.81,74622.5,8.55,6.57,6.97,0,*70
1500382850.41,24835,18.81,74624.0,8.53,6.43,6.75,0,*7E
1500382851.61,24836,18.81,74622.0,8.53,6.43,6.75,0,*7D
1500382852.84,24837,18.81,74622.5,8.55,6.57,7.09,0,*75
1500382854.04,24838,18.81,74622.0,8.53,6.61,7.05,0,*75
1500382855.25,24839,18.81,74622.8,8.53,6.51,6.83,0,*78
1500382856.48,24840,18.81,74624.8,8.53,6.53,6.87,0,*70
1500382857.69,24841,18.81,74624.3,8.53,6.65,6.97,0,*75
1500382858.92,24842,18.81,74622.3,8.55,6.33,6.69,0,*72
1500382860.15,24843,18.81,74622.0,8.51,6.35,6.75,0,*7C
1500382861.35,24844,18.88,74626.5,8.49,6.57,7.01,0,*74
1500382862.58,24845,18.81,74620.8,8.49,6.73,7.15,0,*76
1500382863.84,24846,18.81,74622.3,8.51,6.73,7.11,0,*78
1500382865.03,24847,18.81,74622.8,8.51,6.75,7.09,0,*76
1500382866.24,24848,18.81,74624.5,8.49,6.73,7.09,0,*76
1500382867.46,24849,18.81,74622.5,8.51,6.75,7.11,0,*71
1500382868.67,24850,18.81,74622.0,8.49,6.79,7.15,0,*78
1500382869.87,24851,18.81,74622.3,8.49,6.79,7.15,0,*79
1500382871.07,24852,18.81,74622.5,8.51,6.75,7.09,0,*72
1500382872.27,24853,18.81,74624.3,8.49,6.57,6.93,0,*78
1500382873.5,24854,18.81,74622.5,8.49,6.57,6.91,0,*7D
1500382874.7,24855,18.81,74622.5,8.49,6.61,6.93,0,*7B
1500382875.93,24856,18.81,74620.8,8.49,6.57,6.91,0,*7F
1500382877.19,24857,18.81,74622.5,8.47,6.53,6.91,0,*74
1500382878.44,24858,18.81,74620.8,8.47,6.53,6.87,0,*7C
1500382879.7,24859,18.81,74620.3,8.47,6.53,6.91,0,*7A
1500382880.9,24860,18.81,74622.0,8.45,6.65,7.01,0,*7F
1500382882.13,24861,18.81,74620.3,8.47,6.57,7.01,0,*7D
1500382883.36,24862,18.81,74624.3,8.47,6.43,6.75,0,*79
1500382884.62,24863,18.81,74622.3,8.47,6.65,7.11,0,*7F
1500382885.82,24864,18.81,74622.5,8.45,6.57,7.05,0,*7E
1500382887.05,24865,18.81,74626.0,8.47,6.35,6.79,0,*73
1500382888.29,24866,18.81,74622.5,8.45,6.35,6.69,0,*73
1500382889.52,24867,18.81,74624.3,8.41,6.47,6.93,0,*76
1500382890.74,24868,18.81,74622.0,8.41,6.61,6.93,0,*7D
1500382891.97,24869,18.81,74620.8,8.41,6.61,7.05,0,*72
1500382893.19,24870,18.81,74620.8,8.41,6.69,7.05,0,*72
1500382894.39,24871,18.81,74622.5,8.45,6.53,6.97,0,*74
1500382895.65,24872,18.81,74620.3,8.41,6.57,6.91,0,*71
1500382896.88,24873,18.81,74620.5,8.41,6.51,6.93,0,*74
1500382898.1,24874,18.81,74620.3,8.41,6.73,7.05,0,*7D
1500382899.33,24875,18.81,74624.3,8.41,6.57,6.93,0,*74
1500382900.53,24876,18.81,74620.0,8.39,6.47,6.83,0,*78
1500382901.76,24877,18.81,74620.3,8.41,6.61,6.97,0,*77
1500382902.96,24878,18.81,74622.3,8.39,6.57,6.97,0,*72
1500382904.16,24879,18.81,74620.5,8.39,6.51,6.93,0,*71
1500382905.41,24880,18.81,74622.8,8.41,6.73,7.15,0,*77
1500382906.67,24881,18.81,74622.8,8.41,6.73,7.15,0,*76
1500382907.86,24882,18.81,74622.8,8.39,6.83,7.19,0,*79
1500382909.06,24883,18.81,74624.0,8.35,6.75,7.11,0,*75
1500382910.26,24884,18.81,74626.0,8.39,6.83,7.15,0,*73
1500382911.48,24885,18.81,74624.0,8.39,6.91,7.15,0,*71
1500382912.68,24886,18.81,74624.3,8.39,6.83,7.19,0,*7D
1500382913.87,24887,18.81,74622.8,8.39,6.79,7.15,0,*75
1500382915.04,24888,18.81,74624.0,8.39,6.79,7.09,0,*77
1500382916.24,24889,18.81,74620.3,8.39,6.73,7.09,0,*7C
1500382917.43,24890,18.81,74620.5,8.39,6.79,7.15,0,*73
1500382918.63,24891,18.81,74622.3,8.39,6.79,7.15,0,*72
1500382919.83,24892,18.81,74622.0,8.35,6.65,7.05,0,*71
1500382921.02,24893,18.81,74620.3,8.35,6.69,7.05,0,*7C
1500382922.22,24894,18.81,74622.8,8.35,6.79,7.15,0,*7B
1500382923.44,24895,18.81,74624.3,8.35,6.91,7.15,0,*7C
1500382924.67,24896,18.81,74624.3,8.35,6.91,7.27,0,*7E
1500382925.83,24897,18.81,74624.3,8.35,7.01,7.33,0,*72
1500382927.0,24898,18.81,74622.0,8.35,7.01,7.37,0,*79
1500382928.18,24899,18.81,74622.5,8.35,6.93,7.33,0,*76
1500382929.35,24900,18.81,74624.5,8.35,6.93,7.33,0,*77
1500382930.58,24901,18.81,74624.5,8.35,6.47,6.87,0,*71
1500382931.8,24902,18.81,74626.0,8.33,6.61,6.93,0,*75
1500382932.99,24903,18.81,74626.3,8.35,6.69,7.01,0,*70
1500382934.22,24904,18.81,74626.0,8.33,6.61,6.97,0,*77
1500382935.41,24905,18.81,74622.0,8.35,6.69,7.01,0,*76
1500382936.64,24906,18.81,74624.5,8.33,6.73,7.09,0,*70
1500382937.84,24907,18.81,74622.5,8.35,6.93,7.23,0,*71
1500382939.05,24908,18.81,74626.0,8.33,6.97,7.29,0,*76
1500382940.26,24909,18.81,74626.5,8.33,6.97,7.29,0,*77
1500382941.5,24910,18.81,74624.5,8.33,6.39,6.53,0,*77
1500382942.71,24911,18.81,74620.3,8.33,6.97,6.97,0,*7A
1500382943.96,24912,18.81,74622.5,8.33,7.23,7.19,0,*70
1500382945.15,24913,18.81,74624.8,8.33,7.45,7.45,0,*78
1500382946.38,24914,18.81,74624.8,8.35,7.47,7.47,0,*79
1500382947.58,24915,18.81,74622.0,8.35,7.47,7.55,0,*7B
1500382948.77,24916,18.81,74624.3,8.33,7.45,7.45,0,*7D
1500382949.96,24917,18.81,74626.0,8.33,7.33,7.33,0,*7C
1500382951.16,24918,18.81,74626.0,8.33,7.33,7.33,0,*73
1500382952.35,24919,18.81,74620.5,8.33,7.33,7.41,0,*77
1500382953.55,24920,18.81,74624.3,8.33,7.41,7.41,0,*78
1500382954.74,24921,18.81,74626.0,8.33,7.33,7.33,0,*79
1500382955.94,24922,18.81,74624.5,8.33,7.33,7.29,0,*71
1500382957.14,24923,18.81,74624.5,8.33,7.29,7.33,0,*70
1500382958.37,24924,18.81,74622.5,8.33,7.23,7.29,0,*76
1500382959.54,24925,18.81,74624.5,8.35,7.33,7.33,0,*7B
1500382960.78,24926,18.81,74622.3,8.33,7.11,7.19,0,*76
1500382961.98,24927,18.81,74624.0,8.33,7.09,7.01,0,*77
1500382963.18,24928,18.81,74626.5,8.33,7.09,7.09,0,*70
1500382964.38,24929,18.81,74620.3,8.31,6.97,6.87,0,*72
1500382965.56,24930,18.81,74624.5,8.31,6.97,6.97,0,*7B
1500382966.73,24931,18.81,74620.3,8.31,7.09,7.09,0,*7A
1500382967.93,24932,18.81,74626.8,8.31,7.09,7.11,0,*70
1500382969.13,24933,18.81,74626.0,8.29,6.97,6.97,0,*71
1500382970.31,24934,18.81,74624.0,8.31,6.97,6.97,0,*7F
1500382971.52,24935,18.88,74624.3,8.29,6.93,6.97,0,*73
1500382972.72,24936,18.81,74620.3,8.29,7.05,7.09,0,*78
1500382973.93,24937,18.81,74626.5,8.29,6.97,6.97,0,*75
1500382975.14,24938,18.81,74624.3,8.27,6.57,6.57,0,*74
1500382976.39,24939,18.81,74626.3,8.25,6.65,6.65,0,*77
1500382977.61,24940,18.81,74624.0,8.25,6.69,6.75,0,*74
1500382978.79,24941,18.81,74624.5,8.27,6.93,6.97,0,*7E
1500382980.01,24942,18.81,74624.5,8.25,6.91,6.93,0,*79
1500382981.2,24943,18.81,74624.5,8.25,7.01,7.01,0,*7A
1500382982.39,24944,18.81,74624.5,8.25,7.01,7.05,0,*79
1500382983.63,24945,18.81,74626.3,8.25,7.15,7.23,0,*79
1500382984.89,24946,18.81,74626.0,8.25,7.23,7.27,0,*7B
1500382986.07,24947,18.81,74624.5,8.27,7.29,7.29,0,*7C
1500382987.32,24948,18.81,74624.3,8.25,7.15,7.15,0,*71
1500382988.5,24949,18.81,74624.3,8.25,7.01,7.01,0,*70
1500382989.73,24950,18.81,74626.3,8.25,7.05,7.11,0,*7D
1500382990.98,24951,18.81,74620.5,8.25,7.23,7.15,0,*7C
1500382992.23,24952,18.81,74624.0,8.25,7.27,7.27,0,*7A
1500382993.48,24953,18.81,74622.5,8.25,7.27,7.27,0,*7B
1500382994.74,24954,18.81,74622.3,8.25,7.23,7.11,0,*7D
1500382995.94,24955,18.81,74622.8,8.25,6.33,6.21,0,*7E
1500382997.17,24956,18.81,74624.0,8.23,6.65,6.65,0,*78
1500382998.33,24957,18.81,74626.8,8.23,7.01,7.01,0,*79
1500382999.49,24958,18.81,74624.5,8.23,7.09,7.01,0,*7E
1500383000.65,24959,18.81,74622.5,8.23,7.01,7.01,0,*77
1500383001.82,24960,18.81,74620.5,8.23,7.09,7.01,0,*75
1500383003.04,24961,18.81,74622.0,8.21,7.11,7.09,0,*77
1500383004.22,24962,18.81,74624.5,8.23,7.33,7.29,0,*74
1500383005.39,24963,18.81,74624.3,8.23,7.29,7.41,0,*70
1500383006.56,24964,18.81,74624.0,8.23,7.33,7.41,0,*7C
1500383007.76,24965,18.81,74622.8,8.21,7.29,7.33,0,*71
1500383008.92,24966,18.81,74626.3,8.23,7.41,7.41,0,*7B
1500383010.09,24967,18.81,74626.8,8.23,7.41,7.41,0,*7A
1500383011.26,24968,18.81,74624.3,8.23,7.33,7.33,0,*75
1500383012.46,24969,18.81,74624.5,8.23,6.91,6.97,0,*72
1500383013.63,24970,18.81,74622.8,8.23,7.09,7.09,0,*7C
1500383014.83,24971,18.81,74624.0,8.21,6.07,6.03,0,*7B
1500383016.01,24972,18.81,74624.0,8.19,6.97,6.97,0,*77
1500383017.21,24973,18.81,74624.5,8.19,7.15,7.09,0,*7B
1500383018.39,24974,18.81,74624.5,8.19,7.09,7.09,0,*71
1500383019.57,24975,18.81,74626.5,8.19,7.05,7.09,0,*7C
1500383020.77,24976,18.81,74624.5,8.19,6.87,6.83,0,*77
1500383022.0,24977,18.81,74622.0,8.17,4.31,4.07,0,*79
1500383023.21,24978,18.81,74624.5,8.17,5.99,5.99,0,*73
1500383024.46,24979,18.81,74624.8,8.17,6.73,6.69,0,*79
1500383025.69,24980,18.81,74624.0,8.17,6.87,6.83,0,*70
1500383026.91,24981,18.81,74624.3,8.15,6.73,6.65,0,*70
1500383028.13,24982,18.81,74626.8,8.15,6.69,6.65,0,*78
1500383029.33,24983,18.81,74620.3,8.17,6.83,6.83,0,*77
1500383030.55,24984,18.81,74626.3,8.17,6.83,6.73,0,*7F
1500383031.75,24985,18.81,74622.0,8.19,6.75,6.73,0,*79
1500383032.95,24986,18.81,74624.3,8.17,6.75,6.75,0,*72
1500383034.14,24987,18.81,74626.0,8.17,6.83,6.83,0,*73
1500383035.37,24988,18.81,74624.3,8.17,6.87,6.83,0,*78
1500383036.59,24989,18.81,74626.0,8.17,6.75,6.69,0,*70
1500383037.81,24990,18.81,74626.3,8.19,6.69,6.69,0,*7B
1500383039.03,24991,18.81,74626.3,8.19,6.61,6.61,0,*7A
1500383040.28,24992,18.81,74628.0,8.17,6.73,6.69,0,*7C
1500383041.48,24993,18.81,74626.0,8.17,6.75,6.75,0,*76
1500383042.68,24994,18.81,74624.5,8.17,6.75,6.75,0,*71
1500383043.93,24995,18.81,74626.0,8.17,6.73,6.69,0,*7B
1500383045.1,24996,18.81,74624.0,8.15,6.79,6.79,0,*71
1500383046.27,24997,18.81,74624.3,8.15,6.79,6.79,0,*70
1500383047.49,24998,18.81,74622.0,8.15,6.73,6.65,0,*78
1500383048.73,24999,18.81,74620.5,8.17,6.35,6.25,0,*7D
1500383049.98,25000,18.81,74626.0,8.17,6.39,6.39,0,*74
1500383051.24,25001,18.81,74626.3,8.17,6.57,6.51,0,*73
1500383052.5,25002,18.81,74624.0,8.17,6.51,6.47,0,*71
1500383053.75,25003,18.81,74624.5,8.11,6.65,6.53,0,*74
1500383054.94,25004,18.81,74624.8,8.15,6.79,6.73,0,*78
1500383056.19,25005,18.81,74626.5,8.11,6.65,6.61,0,*73
1500383057.42,25006,18.81,74626.0,8.15,6.43,6.43,0,*70
1500383058.68,25007,18.81,74620.0,8.11,6.43,6.43,0,*75
1500383059.89,25008,18.81,74624.8,8.15,6.57,6.57,0,*7E
1500383061.11,25009,18.81,74624.5,8.15,6.43,6.53,0,*7E
1500383062.31,25010,18.81,74622.8,8.11,6.07,6.11,0,*74
1500383063.49,25011,18.81,74620.0,8.15,6.11,6.11,0,*76
1500383064.67,25012,18.81,74622.8,8.15,6.25,6.25,0,*75
1500383065.92,25013,18.81,74622.3,8.11,6.39,6.43,0,*7D
1500383067.17,25014,18.81,74620.3,8.11,6.65,6.61,0,*73
1500383068.42,25015,18.81,74622.8,8.11,6.61,6.65,0,*72
1500383069.67,25016,18.81,74624.5,8.11,6.61,6.53,0,*74
1500383070.91,25017,18.81,74630.0,8.11,6.61,6.65,0,*70
1500383072.16,25018,18.81,74622.0,8.11,6.61,6.61,0,*7B
1500383073.41,25019,18.81,74626.5,8.11,6.51,6.53,0,*78
1500383074.66,25020,18.81,74620.5,8.11,6.53,6.53,0,*70
1500383075.92,25021,18.81,74626.3,8.11,6.51,6.43,0,*72
1500383077.13,25022,18.81,74626.0,8.11,6.33,6.33,0,*72
1500383078.36,25023,18.81,74626.8,8.09,6.43,6.51,0,*79
1500383079.6,25024,18.81,74622.8,8.09,6.51,6.43,0,*7E
1500383080.85,25025,18.81,74626.8,8.07,6.39,6.35,0,*7E
1500383082.1,25026,18.81,74624.3,8.07,6.51,6.39,0,*7F
1500383083.34,25027,18.81,74626.0,8.09,6.43,6.43,0,*7E
1500383084.56,25028,18.81,74624.0,8.09,6.53,6.53,0,*71
1500383085.78,25029,18.81,74622.8,8.09,6.61,6.53,0,*71
1500383087.0,25030,18.81,74620.5,8.09,6.53,6.43,0,*79
1500383088.26,25031,18.81,74622.5,8.07,6.39,6.35,0,*7B
1500383089.51,25032,18.81,74620.8,8.07,6.57,6.51,0,*72
1500383090.75,25033,18.81,74624.0,8.07,6.57,6.57,0,*75
1500383092.0,25034,18.81,74626.0,8.07,6.47,6.47,0,*72
1500383093.21,25035,18.81,74624.8,8.07,6.29,6.25,0,*7F
1500383094.46,25036,18.81,74622.0,8.07,6.39,6.39,0,*70
1500383095.7,25037,18.81,74626.8,8.07,6.39,6.39,0,*71
1500383096.95,25038,18.81,74622.5,8.07,6.39,6.39,0,*7E
1500383098.2,25039,18.81,74626.0,8.07,6.47,6.39,0,*76
1500383099.46,25040,18.81,74622.8,8.07,6.51,6.51,0,*71
1500383100.69,25041,18.81,74624.0,8.05,6.47,6.43,0,*76
1500383101.95,25042,18.81,74624.3,8.03,6.43,6.47,0,*73
1500383103.16,25043,18.81,74620.3,8.05,6.35,6.33,0,*76
1500383104.4,25044,18.81,74620.3,8.03,6.43,6.33,0,*76
1500383105.63,25045,18.81,74622.3,8.05,6.43,6.43,0,*76
1500383106.87,25046,18.81,74624.3,8.05,6.35,6.35,0,*75
1500383108.08,25047,18.81,74622.8,8.05,6.53,6.57,0,*70
1500383109.32,25048,18.81,74622.0,8.03,6.53,6.53,0,*7D
1500383110.56,25049,18.81,74622.8,8.05,6.47,6.47,0,*7A
1500383111.82,25050,18.81,74622.8,8.03,6.47,6.43,0,*70
1500383113.03,25051,18.81,74620.8,8.03,6.25,6.21,0,*71
1500383114.27,25052,18.81,74622.5,8.03,6.33,6.35,0,*70
1500383115.45,25053,18.81,74624.3,8.05,6.33,6.33,0,*71
1500383116.68,25054,18.81,74622.5,8.03,6.21,6.13,0,*71
1500383117.92,25055,18.81,74622.3,8.03,6.35,6.25,0,*70
1500383119.14,25056,18.81,74622.8,8.03,6.03,6.03,0,*72
1500383120.4,25057,18.81,74620.0,8.03,6.35,6.35,0,*73
1500383121.64,25058,18.81,74622.3,7.99,6.33,6.39,0,*7A
1500383122.89,25059,18.81,74622.8,7.99,6.51,6.39,0,*7F
1500383124.11,25060,18.81,74622.8,8.01,6.53,6.53,0,*75
1500383125.34,25061,18.81,74620.3,8.01,6.53,6.51,0,*76
1500383126.57,25062,18.81,74620.5,8.01,6.57,6.65,0,*76
1500383127.79,25063,18.81,74622.3,8.01,6.57,6.65,0,*77
1500383129.04,25064,18.81,74622.0,7.99,6.61,6.53,0,*7E
1500383130.29,25065,18.81,74622.5,7.99,6.53,6.51,0,*7C
1500383131.5,25066,18.81,74620.8,7.99,6.29,6.25,0,*71
1500383132.68,25067,18.81,74624.0,8.01,6.21,6.21,0,*72
1500383133.86,25068,18.81,74624.0,8.01,6.07,6.07,0,*7D
1500383135.03,25069,18.81,74620.3,8.01,6.07,6.07,0,*7C
1500383136.24,25070,18.81,74624.3,7.99,6.03,6.03,0,*7A
1500383137.47,25071,18.81,74622.8,7.99,6.13,6.25,0,*7E
1500383138.73,25072,18.81,74618.5,7.99,6.47,6.51,0,*7F
1500383139.97,25073,18.81,74616.8,7.99,6.53,6.61,0,*78
1500383141.21,25074,18.81,74616.0,7.97,5.93,5.81,0,*73
1500383142.39,25075,18.81,74616.3,7.97,6.29,6.29,0,*71
1500383143.65,25076,18.81,74618.0,7.95,6.47,6.39,0,*79
1500383144.89,25077,18.81,74622.0,7.97,6.51,6.47,0,*74
1500383146.12,25078,18.81,74622.8,7.97,6.61,6.61,0,*7C
1500383147.35,25079,18.81,74622.3,7.97,6.53,6.47,0,*78
1500383148.61,25080,18.81,74622.8,7.95,6.57,6.43,0,*7C
1500383149.85,25081,18.81,74622.0,7.97,6.47,6.35,0,*7F
1500383151.06,25082,18.81,74618.8,7.97,6.51,6.29,0,*76
1500383152.29,25083,18.81,74618.5,7.97,6.61,6.51,0,*7B
1500383153.52,25084,18.81,74618.3,7.97,6.61,6.53,0,*7E
1500383154.72,25085,18.81,74622.8,7.97,6.39,6.25,0,*73
1500383155.98,25086,18.81,74622.0,7.95,6.35,6.13,0,*7B
1500383157.24,25087,18.81,74624.0,7.95,6.61,6.51,0,*7D
1500383158.5,25088,18.81,74622.5,7.95,6.69,6.51,0,*7A
1500383159.71,25089,18.81,74620.5,7.97,6.69,6.57,0,*7F
1500383160.97,25090,18.81,74622.8,7.95,6.61,6.47,0,*7C
1500383162.24,25091,18.81,74626.8,7.95,6.51,6.35,0,*7B
1500383163.5,25092,18.81,74620.5,7.95,6.47,6.35,0,*7F
1500383164.71,25093,18.81,74620.5,7.95,5.41,5.33,0,*7E
1500383165.97,25094,18.81,74622.0,7.95,6.47,6.43,0,*78
1500383167.23,25095,18.81,74622.0,7.95,6.57,6.47,0,*7C
1500383168.47,25096,18.81,74620.0,7.95,6.61,6.57,0,*7B
1500383169.72,25097,18.81,74622.3,7.95,6.69,6.61,0,*77
1500383170.97,25098,18.81,74620.8,7.95,6.61,6.61,0,*70
1500383172.23,25099,18.81,74622.5,7.95,6.61,6.51,0,*72
1500383173.45,25100,18.81,74622.8,7.97,6.61,6.53,0,*73
1500383174.7,25101,18.81,74620.0,7.95,6.61,6.57,0,*74
1500383175.92,25102,18.81,74620.8,7.97,6.53,6.53,0,*70
1500383177.17,25103,18.81,74620.5,7.95,6.61,6.57,0,*76
1500383178.42,25104,18.81,74624.5,7.95,6.61,6.57,0,*71
1500383179.67,25105,18.81,74620.0,7.95,6.61,6.61,0,*75
1500383180.92,25106,18.81,74620.3,7.95,6.51,6.57,0,*70
1500383182.17,25107,18.81,74618.0,7.95,6.57,6.57,0,*77
1500383183.41,25108,18.81,74620.3,7.95,6.57,6.57,0,*78
1500383184.64,25109,18.81,74622.3,7.97,6.53,6.53,0,*7B
1500383185.89,25110,18.81,74620.8,7.95,6.51,6.57,0,*77
1500383187.1,25111,18.81,74620.0,7.97,6.25,5.77,0,*76
1500383188.35,25112,18.81,74618.8,7.95,5.81,5.81,0,*73
1500383189.56,25113,18.81,74620.8,7.93,5.01,4.85,0,*79
1500383190.75,25114,18.81,74620.8,7.93,6.03,6.25,0,*77
1500383191.95,25115,18.81,74616.3,7.89,6.53,6.75,0,*7D
1500383193.13,25116,18.81,74620.3,7.89,5.95,6.07,0,*72
1500383194.39,25117,18.81,74620.0,7.87,6.39,6.53,0,*79
1500383195.61,25118,18.81,74618.0,7.87,6.53,6.75,0,*7E
1500383196.87,25119,18.81,74618.8,7.87,6.61,6.87,0,*73
1500383198.1,25120,18.81,74618.5,7.87,6.53,6.83,0,*7C
1500383199.33,25121,18.81,74618.0,7.87,6.61,6.83,0,*7C
1500383200.54,25122,18.81,74618.0,7.85,6.65,6.83,0,*79
1500383201.74,25123,18.81,74618.8,7.89,6.65,6.79,0,*71
1500383202.97,25124,18.81,74622.0,7.87,6.17,6.29,0,*78
1500383204.21,25125,18.81,74622.3,7.89,6.91,6.91,0,*7A
1500383205.41,25126,18.81,74616.3,7.87,6.83,6.75,0,*7E
1500383206.62,25127,18.81,74618.5,7.87,6.83,6.75,0,*7F
1500383207.82,25128,18.81,74620.3,7.85,6.87,6.83,0,*7F
1500383209.06,25129,18.81,74616.5,7.87,6.93,6.87,0,*7D
1500383210.29,25130,18.81,74620.5,7.87,6.93,6.87,0,*75
1500383211.47,25131,18.81,74618.5,7.85,6.75,6.83,0,*7A
1500383212.7,25132,18.81,74622.0,7.85,6.73,6.61,0,*73
1500383213.92,25133,18.81,74620.5,7.85,6.53,6.53,0,*71
1500383215.11,25134,18.81,74620.8,7.85,6.03,5.95,0,*7A
1500383216.37,25135,18.81,74622.3,7.83,6.35,6.35,0,*71
1500383217.59,25136,18.81,74616.0,7.81,6.35,6.33,0,*76
1500383218.77,25137,18.81,74618.3,7.81,6.11,6.11,0,*71
1500383219.96,25138,18.81,74618.8,7.81,5.99,6.03,0,*7E
1500383221.17,25139,18.81,74618.0,7.79,6.35,6.33,0,*7E
1500383222.41,25140,18.81,74618.5,7.79,6.47,6.47,0,*76
1500383223.63,25141,18.81,74616.8,7.79,6.65,6.65,0,*77
1500383224.9,25142,18.81,74620.3,7.77,6.51,6.43,0,*79
1500383226.08,25143,18.81,74618.5,7.79,6.29,6.29,0,*75
1500383227.28,25144,18.81,74622.3,7.77,5.95,5.33,0,*70
1500383228.51,25145,18.81,74618.5,7.77,5.45,5.27,0,*79
1500383229.71,25146,18.81,74620.3,7.75,5.73,5.63,0,*7D
1500383230.88,25147,18.81,74620.3,7.75,5.49,5.33,0,*70
1500383232.11,25148,18.81,74620.0,7.73,6.03,5.81,0,*7D
1500383233.32,25149,18.81,74616.0,7.73,6.25,6.03,0,*71
1500383234.57,25150,18.81,74618.3,7.73,6.39,6.13,0,*75
1500383235.8,25151,18.81,74620.0,7.73,6.35,6.21,0,*79
1500383237.02,25152,18.81,74622.8,7.73,6.29,6.13,0,*76
1500383238.25,25153,18.81,74618.5,7.73,6.47,6.25,0,*7A
1500383239.48,25154,18.81,74620.3,7.73,6.47,6.29,0,*71
1500383240.68,25155,18.81,74620.0,7.71,6.47,6.29,0,*72
1500383241.88,25156,18.81,74618.0,7.71,6.39,6.25,0,*74
1500383243.08,25157,18.81,74618.3,7.71,6.47,6.29,0,*70
1500383244.31,25158,18.81,74616.8,7.71,6.47,6.35,0,*72
1500383245.53,25159,18.81,74616.3,7.67,6.69,6.53,0,*78
1500383246.74,25160,18.81,74616.5,7.73,6.79,6.57,0,*72
1500383247.99,25161,18.81,74618.5,7.73,6.73,6.69,0,*74
1500383249.18,25162,18.81,74618.5,7.71,6.83,6.73,0,*71
1500383250.4,25163,18.81,74618.5,7.73,6.83,6.73,0,*72
1500383251.64,25164,18.81,74616.3,7.73,6.91,6.69,0,*7D
1500383252.83,25165,18.81,74618.8,7.75,6.75,6.65,0,*7C
1500383254.08,25166,18.81,74616.3,7.73,6.69,6.51,0,*73
1500383255.31,25167,18.81,74618.8,7.75,6.61,6.51,0,*7C
1500383256.55,25168,18.81,74620.3,7.73,6.69,6.51,0,*7D
1500383257.8,25169,18.81,74620.3,7.73,6.57,6.39,0,*7F
1500383258.99,25170,18.81,74618.3,7.75,6.83,6.61,0,*75
1500383260.24,25171,18.81,74620.5,7.73,6.73,6.69,0,*75
1500383261.48,25172,18.81,74618.8,7.73,6.91,6.69,0,*7A
1500383262.72,25173,18.81,74622.5,7.73,6.73,6.61,0,*7F
1500383263.98,25174,18.81,74616.8,7.73,6.73,6.51,0,*7B
1500383265.17,25175,18.81,74620.3,7.75,6.83,6.65,0,*74
1500383266.42,25176,18.81,74618.8,7.73,6.61,6.51,0,*7A
1500383267.68,25177,18.81,74618.0,7.73,6.61,6.51,0,*7B
1500383268.92,25178,18.81,74620.0,7.73,6.69,6.51,0,*7C
1500383270.17,25179,18.81,74622.8,7.73,6.69,6.51,0,*7D
1500383271.38,25180,18.81,74620.0,7.71,6.69,6.57,0,*7F
1500383272.58,25181,18.81,74620.5,7.71,6.83,6.69,0,*77
1500383273.8,25182,18.81,74624.5,7.71,6.69,6.51,0,*7B
1500383275.03,25183,18.81,74618.8,7.71,6.51,6.39,0,*7F
1500383276.22,25184,18.81,74620.0,7.71,6.03,5.99,0,*76
1500383277.4,25185,18.81,74620.5,7.71,5.95,5.95,0,*77
1500383278.63,25186,18.81,74620.5,7.67,6.35,6.35,0,*73
1500383279.85,25187,18.81,74622.0,7.67,6.53,6.53,0,*72
1500383281.06,25188,18.81,74622.3,7.67,6.53,6.57,0,*79
1500383282.23,25189,18.81,74620.3,7.67,6.75,6.75,0,*7C
1500383283.4,25190,18.81,74622.5,7.71,6.79,6.83,0,*76
1500383284.57,25191,18.81,74620.0,7.67,6.75,6.75,0,*75
1500383285.81,25192,18.81,74622.5,7.71,6.47,6.47,0,*71
1500383287.03,25193,18.81,74620.5,7.67,6.57,6.61,0,*72
1500383288.26,25194,18.81,74620.5,7.67,6.35,6.35,0,*70
1500383289.49,25195,18.81,74624.5,7.67,6.65,6.65,0,*71
1500383290.66,25196,18.81,74624.3,7.67,6.79,6.75,0,*7E
1500383291.89,25197,18.81,74620.8,7.67,6.87,6.87,0,*73
1500383293.07,25198,18.81,74620.8,7.67,6.25,6.25,0,*7C
1500383294.29,25199,18.81,74622.5,7.67,6.57,6.53,0,*79
1500383295.51,25200,18.81,74620.3,7.67,6.87,6.87,0,*7E
1500383296.71,25201,18.81,74620.5,7.67,6.79,6.87,0,*7E
1500383297.88,25202,18.81,74620.3,7.67,6.79,6.79,0,*7C
1500383299.08,25203,18.81,74622.5,7.67,6.91,6.97,0,*7B
1500383300.28,25204,18.81,74624.8,7.67,6.91,6.97,0,*7C
1500383301.51,25205,18.81,74622.0,7.67,6.91,6.91,0,*7B
1500383302.69,25206,18.81,74626.3,7.67,6.97,6.97,0,*78
1500383303.88,25207,18.81,74626.0,7.67,6.79,6.65,0,*74
1500383305.1,25208,18.81,74622.5,7.67,6.65,6.57,0,*77
1500383306.28,25209,18.81,74626.8,7.67,6.25,6.21,0,*73
1500383307.54,25210,18.81,74622.3,7.65,6.43,6.51,0,*7E
1500383308.77,25211,18.81,74622.8,7.63,6.73,6.65,0,*7D
1500383309.99,25212,18.81,74622.3,7.65,6.73,6.83,0,*70
1500383311.16,25213,18.81,74622.8,7.63,6.75,6.83,0,*71
1500383312.36,25214,18.81,74626.0,7.65,6.75,6.75,0,*79
1500383313.61,25215,18.81,74624.0,7.65,6.73,6.73,0,*78
1500383314.84,25216,18.81,74622.8,7.63,6.43,6.39,0,*70
1500383316.07,25217,18.81,74622.5,7.63,6.61,6.51,0,*7F
1500383317.31,25218,18.81,74626.3,7.65,6.61,6.61,0,*75
1500383318.55,25219,18.81,74624.8,7.63,6.51,6.51,0,*72
1500383319.8,25220,18.81,74626.0,7.65,6.61,6.65,0,*7A
1500383321.05,25221,18.81,74624.8,7.65,6.65,6.73,0,*78
1500383322.24,25222,18.81,74624.8,7.65,6.75,6.83,0,*75
1500383323.47,25223,18.81,74626.0,7.63,6.61,6.65,0,*7F
1500383324.69,25224,18.81,74624.3,7.65,6.73,6.75,0,*7C
1500383325.91,25225,18.81,74620.3,7.63,6.61,6.61,0,*7D
1500383327.13,25226,18.81,74624.0,7.65,6.75,6.73,0,*7E
1500383328.3,25227,18.81,74620.3,7.63,6.75,6.83,0,*76
1500383329.47,25228,18.81,74622.3,7.63,6.75,6.83,0,*79
1500383330.65,25229,18.81,74624.8,7.63,6.75,6.75,0,*71
1500383331.84,25230,18.81,74622.0,7.65,6.83,6.83,0,*7F